User: anonymous   Login
Location: Deer Lodge Site
(39.6809°N, 119.9392°W)
Time: 05:56:55
(UTC-07:00)
Language:

CZ-4C R/B - Orbit

View from above orbital plane
View from above orbital plane
View from above satellite
View from above satellite

Ground track
Ground track

The orbit data is extracted from the following two-line orbital elements,

1 36416U 10009D   15087.80952207 -.00000011  00000-0  70194-4 0  9992
2 36416 063.4458 278.2209 0307384 359.1702 000.8787 13.69460094253253
Epoch (UTC): 28 March 2015 19:25:42
Eccentricity: 0.0307384
inclination: 63.4458°
perigee height: 774 km
apogee height: 1228 km
right ascension of ascending node: 278.2209°
argument of perigee: 359.1702°
revolutions per day: 13.69460094
mean anomaly at epoch: 0.8787°
orbit number at epoch: 25325

The dashed part of the orbit path shows where the satellite is in the earth's shadow,  

DLR